User: anonymous   Login
Location: Heidgraben
(53.7081°N, 9.6576°E)
Time: 00:16:30
(UTC+00:00)
Language:

ALOS 2 - Orbit

View from above orbital plane
View from above orbital plane
View from above satellite
View from above satellite

Ground track
Ground track

The orbit data is extracted from the following two-line orbital elements,

1 39766U 14029A   20271.70437740 -.00000199  00000-0 -19779-4 0  9999
2 39766  97.9220   6.8391 0001499  84.4015 275.7371 14.79470211342810
Epoch (UTC): 27 September 2020 16:54:18
Eccentricity: 0.0001499
inclination: 97.9220°
perigee height: 630 km
apogee height: 632 km
right ascension of ascending node: 6.8391°
argument of perigee: 84.4015°
revolutions per day: 14.79470211
mean anomaly at epoch: 275.7371°
orbit number at epoch: 34281

The dashed part of the orbit path shows where the satellite is in the earth's shadow,  

DLR